Printer-friendly version

IAU Minor Planet Center

Minor Planet Center

MPEC 2007-F74 : 2007 EW = 2006 SM134

The following Minor Planet Electronic Circular may be linked-to from your own Web pages, but must not otherwise be redistributed electronically.


Read MPEC 2007-F73 Read MPEC 2007-F75


M.P.E.C. 2007-F74                                Issued 2007 Mar. 25, 14:47 UT

     The Minor Planet Electronic Circulars contain information on unusual
         minor planets and routine data on comets.  They are published
   on behalf of Commission 20 of the International Astronomical Union by the
          Minor Planet Center, Smithsonian Astrophysical Observatory,
                          Cambridge, MA 02138, U.S.A.

             Prepared using the Tamkin Foundation Computer Network

                              MPC@CFA.HARVARD.EDU
          URL http://cfa-www.harvard.edu/iau/mpc.html  ISSN 1523-6714

                             2007 EW = 2006 SM134

                           Revision to MPEC 2007-E46

Orbital elements:
2007 EW = 2006 SM134                                     Earth MOID = 0.3954 AU
Epoch 2007 Apr. 10.0 TT = JDT 2454200.5                 MPC
M  20.27838              (2000.0)            P               Q
n   0.23132644     Peri.   83.49304     -0.47098731     -0.84327937
a   2.6281644      Node    38.32804     +0.54924807     -0.51003112
e   0.5743606      Incl.   24.67926     +0.69028799     -0.16955282
P   4.26           H   18.7           G   0.15           U   4
Residuals in seconds of arc
060927 G96  0.3-  0.5-    070310 703  0.3+  1.0-    070314 J95  0.1+  0.3-
060927 G96  0.2-  0.6-    070310 703  1.5-  1.7+    070314 J95  0.5+  0.2+
060927 G96  0.3+  0.5-    070310 703  0.6+  0.6+    070314 J95  0.0   0.1+
060927 G96  0.2+  0.1-    070310 703  0.2-  0.0     070314 711  0.7+  0.3+
060927 G96  0.2+  0.4-    070310 703  0.7-  0.3+    070314 711  1.4+  0.3+
060927 G96  0.2+  0.3-    070310 703  1.0-  0.7-    070314 711  0.5+  0.3+
060927 G96  0.5+  0.1-    070310 A17  0.7+  0.0     070316 448  0.2-  0.2-
060928 G96  0.5+  0.1-    070310 A17  0.3-  0.7-    070316 448  0.1-  0.1+
060928 G96  0.4+  0.2-    070310 A17  0.3-  0.2-    070316 448  0.0   0.1-
060928 291  0.4-  0.2-    070310 A17  0.3-  0.0     070324 A13  0.3-  0.2-
060928 G96  0.1-  0.4-    070310 235  0.1+  0.6-    070324 A13  0.3-  0.1-
060928 291  0.1-  1.0+    070311 130  0.8-  0.5+    070324 A13  0.2-  0.2+
070310 703  0.8-  0.2-    070311 130  0.4-  0.4-

Ephemeris:
2007 EW                  a,e,i = 2.63, 0.57, 25                  q = 1.1187
Date    TT    R. A. (2000) Decl.     Delta      r     Elong.  Phase     V
2007 03 21    14 27.14   +31 21.1    0.490    1.378   133.1    31.8    19.2
2007 03 31    13 56.37   +25 37.2    0.510    1.445   144.6    23.6    19.1
2007 04 10    13 28.81   +19 15.1    0.554    1.516   152.8    17.6    19.2
2007 04 20    13 07.40   +12 59.9    0.624    1.588   153.6    16.4    19.6
2007 04 30    12 53.01   +07 24.3    0.720    1.661   147.9    18.8    20.0
2007 05 10    12 44.94   +02 39.5    0.837    1.736   139.9    22.0    20.6
2007 05 20    12 42.02   -01 18.6    0.973    1.810   131.6    24.7    21.1
2007 05 30    12 43.14   -04 39.7    1.124    1.884   123.6    26.6    21.5
2007 06 09    12 47.33   -07 32.8    1.286    1.958   116.1    27.7    21.9

Gareth V. Williams           (C) Copyright 2007 MPC           M.P.E.C. 2007-F74

Read MPEC 2007-F73 Read MPEC 2007-F75


Our Web policy. Index to the CBAT/MPC/ICQ pages.


Valid HTML 4.01!